User: anonymous   Login
Location: Bothwell
(42.3833°S, 147.0000°E)
Time: 05:37:19
(UTC+10:00)
Language:

AAUSAT CUBESAT 2 - Orbit

View from above orbital plane
View from above orbital plane
View from above satellite
View from above satellite

Ground track
Ground track

The orbit data is extracted from the following two-line orbital elements,

1 32788U 08021F   22267.51029413  .00005754  00000-0  48896-3 0  9992
2 32788  97.5437 249.4052 0012482 139.2965 220.9193 14.98183393783264
Epoch (UTC): 24 September 2022 12:14:49
Eccentricity: 0.0012482
inclination: 97.5437°
perigee height: 564 km
apogee height: 581 km
right ascension of ascending node: 249.4052°
argument of perigee: 139.2965°
revolutions per day: 14.98183393
mean anomaly at epoch: 220.9193°
orbit number at epoch: 78326

The dashed part of the orbit path shows where the satellite is in the earth's shadow,  

DLR